Погода в Севере

Россия / Томская область     58°26′26″N   82°48′52″E
темп.,
°C
ветер,
м/с
пор.,
м/с
влажн.,
%
обл.,
%
осадки,
мм/ч
давл.,
гПа
погр.,
м
13 апреля, вт
вт1301:00+1сз5992100 0.2 1025494
04:00−2зсз39945 0.0 1026208
07:00−1зсз499666 0.0 1027337
10:000з388913 0.0 1028573
13:00+3зсз598661 0.0 1028870
16:00+4зсз51185100 0.4 10271155
19:00+3зсз41180100 0.4 1027795
22:00+2з41185100 0.1 1027505
14 апреля, ср
ср1401:00+1зсз51293100 0.1 1026839
04:000з3895100 0.0 1025333
07:00+1ююз3899100 0.9 1023507
10:00+1юз51299100 3.3 1020612
13:00+4з61395100 6.0 1017874
16:00+3зсз51297100 0.2 1018950
19:00+3зсз51297100 0.3 1019694
22:00+2сз4998100 0.0 1021548
15 апреля, чт
чт1501:00+1зсз2699100 0.0 1022324
04:00+1з1399100 0.1 1023114
07:00+1юз2499100 0.1 1022152
10:00+2ююз3797100 0.0 1021271
13:00+5юз51191100 0.0 1018600
16:00+6юз5129294 0.1 1015525
19:00+9юз5138756 0.1 1013627
22:00+7юз6169049 0.0 1011527
16 апреля, пт
пт1601:00
04:00+7зюз51390100 0.0 1008410
07:00+5сз3695100 0.0 1009312
10:00+1с3798100 0.4 1011342
13:00+1сз3699100 1.8 1012273
16:00+3ссз5766100 0.6 10131355
19:000с5761100 0.6 10161242
22:00−2с4765100 0.0 1018990
17 апреля, сб
сб1701:00−4ссв5765100 0.0 1019832
04:00−6ссв4659100 0.0 1019937
07:00−6св5657100 0.0 10201081
10:00−7св5646100 0.0 10211028
13:00−4св563826 0.0 10201212
16:00−2св5736100 0.0 10181322
19:00−2св5743100 0.0 10181276
22:00−4св4852100 0.0 1019790